AEZ2350 LIEE-LIML

Flight info

Callsign AEZ2350
Flight time N/A
Altitude 30000
Route KOVAS DCT DEXUL DCT GIGGI DCT UPDUT DCT CORSI DCT OKROK DCT AKUTI DCT TORTU DCT ERTEV DCT OLETI DCT ITCAP
Aircraft A319/M-SDE3FGHIRWY/LB1

Departure

Time 2026-05-06 07:56
Airport Cagliari Elmas Airport (LIEE)

Arrival

Time N/A
Airport Milano Linate Airport (LIML)
Time Latitude Longitude Altitude Speed Heading
2026-05-06 07:29 39.25231 9.05901 20 ft 0 kts
2026-05-06 07:43 39.25226 9.05901 20 ft 2 kts 12°
2026-05-06 07:43 39.25212 9.05893 20 ft 2 kts 39°
2026-05-06 07:43 39.25202 9.05878 20 ft 2 kts 61°
2026-05-06 07:44 39.25197 9.05860 20 ft 2 kts 83°
2026-05-06 07:44 39.25198 9.05841 20 ft 2 kts 105°
2026-05-06 07:44 39.25204 9.05823 20 ft 2 kts 128°
2026-05-06 07:44 39.25215 9.05810 20 ft 2 kts 142°
2026-05-06 07:45 39.25223 9.05801 20 ft 0 kts 137°
2026-05-06 07:46 39.25220 9.05805 20 ft 1 kts 137°
2026-05-06 07:47 39.25207 9.05820 20 ft 3 kts 137°
2026-05-06 07:47 39.25187 9.05840 20 ft 3 kts 155°
2026-05-06 07:47 39.25166 9.05843 20 ft 3 kts 188°
2026-05-06 07:47 39.25129 9.05816 20 ft 7 kts 215°
2026-05-06 07:48 39.25070 9.05800 20 ft 10 kts 162°
2026-05-06 07:48 39.25008 9.05864 20 ft 12 kts 137°
2026-05-06 07:48 39.24939 9.05948 20 ft 14 kts 136°
2026-05-06 07:48 39.24859 9.06045 20 ft 16 kts 137°
2026-05-06 07:49 39.24768 9.06147 20 ft 18 kts 139°
2026-05-06 07:49 39.24671 9.06257 20 ft 19 kts 138°
2026-05-06 07:49 39.24567 9.06377 20 ft 20 kts 137°
2026-05-06 07:49 39.24460 9.06502 20 ft 21 kts 137°
2026-05-06 07:50 39.24338 9.06566 20 ft 11 kts 194°
2026-05-06 07:50 39.24323 9.06560 20 ft 0 kts 196°
2026-05-06 07:50 39.24322 9.06560 20 ft 0 kts 196°
2026-05-06 07:54 39.24297 9.06551 20 ft 9 kts 195°
2026-05-06 07:54 39.24258 9.06460 20 ft 18 kts 302°
2026-05-06 07:55 39.24276 9.06435 20 ft 0 kts 317°
2026-05-06 07:55 39.24320 9.06383 20 ft 39 kts 318°
2026-05-06 07:55 39.24729 9.05913 20 ft 115 kts 318°
2026-05-06 07:55 39.25467 9.05054 185 ft 159 kts 317°
2026-05-06 07:56 39.26340 9.04033 596 ft 180 kts 317°
2026-05-06 07:56 39.27322 9.02893 1024 ft 201 kts 318°
2026-05-06 07:56 39.28464 9.01584 1266 ft 240 kts 318°
2026-05-06 07:56 39.29763 9.00158 2059 ft 254 kts 326°
2026-05-06 07:57 39.31439 8.99441 2964 ft 262 kts
2026-05-06 07:57 39.33164 9.00114 3983 ft 264 kts 31°
2026-05-06 07:57 39.34748 9.01362 4981 ft 268 kts 24°
2026-05-06 07:57 39.36524 9.02049 5938 ft 272 kts 12°
2026-05-06 07:58 39.38405 9.02492 6904 ft 276 kts
2026-05-06 07:58 39.40302 9.02855 7837 ft 280 kts
2026-05-06 07:58 39.42226 9.03197 8755 ft 283 kts
2026-05-06 07:58 39.44175 9.03536 9654 ft 287 kts
2026-05-06 07:59 39.46171 9.03881 10513 ft 292 kts
2026-05-06 07:59 39.48229 9.04236 11049 ft 309 kts
2026-05-06 07:59 39.50427 9.04616 11494 ft 327 kts
2026-05-06 07:59 39.52750 9.05018 11910 ft 345 kts
2026-05-06 08:00 39.55175 9.05438 12549 ft 354 kts
2026-05-06 08:00 39.57627 9.05863 13345 ft 357 kts
2026-05-06 08:00 39.60116 9.06295 14123 ft 361 kts
2026-05-06 08:00 39.62614 9.06731 14856 ft 365 kts
2026-05-06 08:01 39.65111 9.07298 15562 ft 369 kts 12°
2026-05-06 08:01 39.67618 9.08070 16257 ft 372 kts 14°
2026-05-06 08:01 39.70145 9.08915 16931 ft 376 kts 14°
2026-05-06 08:01 39.72687 9.09777 17584 ft 380 kts 14°
2026-05-06 08:02 39.75265 9.10650 18219 ft 383 kts 14°
2026-05-06 08:02 39.77853 9.11523 18831 ft 387 kts 14°
2026-05-06 08:02 39.80654 9.12467 19469 ft 390 kts 14°
2026-05-06 08:02 39.83563 9.13411 20105 ft 394 kts 12°
2026-05-06 08:03 39.86550 9.14098 20727 ft 398 kts
2026-05-06 08:03 39.89561 9.14450 21324 ft 401 kts
2026-05-06 08:03 39.92493 9.14620 21882 ft 405 kts
2026-05-06 08:03 39.95392 9.14759 22408 ft 408 kts
2026-05-06 08:04 39.98367 9.14901 22931 ft 412 kts
2026-05-06 08:04 40.01336 9.15048 23435 ft 415 kts
2026-05-06 08:04 40.04295 9.15197 23918 ft 418 kts
2026-05-06 08:04 40.07270 9.15350 24389 ft 421 kts
2026-05-06 08:05 40.10219 9.15503 24841 ft 424 kts
2026-05-06 08:05 40.13224 9.15660 25286 ft 427 kts
2026-05-06 08:05 40.16278 9.15819 25725 ft 430 kts
2026-05-06 08:05 40.19355 9.15980 26153 ft 432 kts
2026-05-06 08:06 40.22490 9.16115 26571 ft 435 kts
2026-05-06 08:06 40.25626 9.15944 26980 ft 438 kts 354°
2026-05-06 08:06 40.28854 9.15357 27389 ft 441 kts 349°
2026-05-06 08:06 40.31958 9.14468 27778 ft 443 kts 347°
2026-05-06 08:07 40.34975 9.13521 28211 ft 444 kts 346°
2026-05-06 08:07 40.37999 9.12556 28705 ft 444 kts 346°
2026-05-06 08:07 40.41050 9.11584 29127 ft 445 kts 346°
2026-05-06 08:07 40.44099 9.10617 29495 ft 447 kts 346°
2026-05-06 08:08 40.47179 9.09642 29859 ft 449 kts 346°
2026-05-06 08:08 40.50260 9.08670 29985 ft 450 kts 346°
2026-05-06 08:08 40.56515 9.06696 29990 ft 451 kts 346°
2026-05-06 08:09 40.62913 9.04676 29991 ft 451 kts 346°
2026-05-06 08:09 40.69264 9.02667 29991 ft 451 kts 346°
2026-05-06 08:10 40.75391 9.00726 29992 ft 451 kts 346°
2026-05-06 08:10 40.81619 8.98748 29992 ft 451 kts 346°
2026-05-06 08:11 40.87788 8.96785 29992 ft 451 kts 346°
2026-05-06 08:11 40.94141 8.94760 29992 ft 451 kts 346°
2026-05-06 08:12 41.00556 8.92711 29992 ft 451 kts 346°